Location: Unspecified
(47.9110°N, 14.3980°E)
Time: 21:50:07
(UTC+00:00)

Cosmos 2366 rocket - Pass Details

Date: 06 August 2020
Orbit: 955 x 997 km, 82.9° (Epoch: 21 September)

Event Time Altitude Azimuth Distance (km) Brightness Sun altitude
Rises 18:56:34 0° 182° (S) 3,678 6.7 -4.8°
Reaches altitude 10° 18:59:05 10° 181° (S) 2,728 6.1 -5.1°
Maximum altitude 19:05:20 79° 96° (E) 998 4.0 -6.0°
Drops below altitude 10° 19:11:33 10° 11° (NNE) 2,717 6.7 -6.9°
Sets 19:14:03 0° 11° (N) 3,663 7.3 -7.2°
